Погода в Никольском-на-Черемшане

Россия / Ульяновская область     54°02′56″N   49°10′45″E
темп.,
°C
ветер,
м/с
пор.,
м/с
влажн.,
%
обл.,
%
осадки,
мм/ч
давл.,
гПа
погр.,
м
9 мая, вс
вс901:00+11юв4768100 0.0 101379
04:00+10ююв447682 0.0 101343
07:00+11ююв477912 0.0 1013123
10:00+14ю696648 0.0 1013328
13:00+16ю6962100 0.0 1012555
16:00+16ю4865100 0.0 1012447
19:00+15юв3570100 0.0 101267
22:00+14юв4469100 0.0 101332
10 мая, пн
пн1001:00+13юв3372100 0.0 101330
04:00+13юв3373100 0.0 101529
07:00+13в1176100 0.0 101666
10:00+16юв3561100 0.0 1017265
13:00+18юв4651100 0.0 1018742
16:00+19вюв5649100 0.0 1018939
19:00+18в576097 0.0 101992
22:00+15всв4563100 0.0 102148
11 мая, вт
вт1101:00+13всв457094 0.0 102246
04:00+12всв4470100 0.0 102337
07:00+13всв3573100 0.0 102485
10:00+16в4565100 0.0 1025267
13:00+18всв4557100 0.0 1026599
16:00+19в575079 0.0 1025980
19:00+18всв56597 0.0 102682
22:00+15всв576768 0.0 102666
12 мая, ср
ср1201:00+14в4668100 0.0 102769
04:00+13в347316 0.0 102743
07:00+14в367719 0.0 1028111
10:00+17вюв5755100 0.0 1028369
13:00+18вюв6849100 0.0 1028793
16:00+19вюв574787 0.0 1027926
19:00+18юв345850 0.0 102748
22:00+15вюв4462100 0.0 102733
13 мая, чт
чт1301:00+14вюв336571 0.0 102725
04:00+13в4567100 0.0 102762
07:00+13вюв486968 0.0 1028129
10:00+16вюв585793 0.0 1028265
13:00+19вюв6848100 0.0 1027646
16:00+19вюв684618 0.0 1026634
19:00+18вюв585747 0.0 1026106
22:00+16вюв465963 0.0 102656